Regional Weather Roundup
Issued by NWS Sterling, VA

Home | Current Version | Previous Version | Text Only | Print | Product List | Glossary On
Versions: 1 2 3 4 5 6 7 8 9 10 11 12 13 14 15 16 17 18 19 20 21 22 23 24 25 26 27 28 29 30 31 32 33 34 35 36 37 38 39 40 41 42 43 44 45 46 47 48 49 50
000
ASUS41 KLWX 201410
RWRLWX

REGIONAL WEATHER ROUNDUP
NATIONAL WEATHER SERVICE BALTIMORE MD/WASHINGTON DC
1000 AM EDT MON OCT 20 2014

Note: "FAIR" indicates few or no clouds below 12,000 feet
with no significant weather and/or obstructions to visibility.
 TC=TEMPERATURE CELSIUS

 * =Non NWS site. Station does not report precipitation (e.g. rain,
    snow, etc.), thunder, or fog.

DCZ001-MDZ009-015-VAZ040>042-051-053>054-201500-
WASHINGTON METRO

CITY           SKY/WX    TMP DP  RH WIND       PRES   REMARKS
WASHINGTON NAT CLOUDY    54  43  66 S10       30.14F
DULLES         PTSUNNY   50  38  63 VRB6      30.11F
ANDREWS AFB    MOSUNNY   56  43  61 S9        30.13S
FT BELVOIR     MOSUNNY   52  49  87 VRB5      30.13F
COLLEGE PARK*  MOSUNNY   52  43  71 CALM      30.13F
LEESBURG*      PTSUNNY   50  41  71 S7        30.12F
MANASSAS*      MOSUNNY   50  43  76 SE3       30.12F
GAITHERSBURG*  CLOUDY    52  41  66 S6        30.15F

$$

MDZ006>007-011-014-201500-
BALTIMORE METRO

CITY           SKY/WX    TMP DP  RH WIND       PRES   REMARKS
BWI AIRPORT    PTSUNNY   52  39  61 S5        30.13S
MD SCIENCE CTR   N/A     53  38  56 MISG      30.14S
MARTIN STATE   PTSUNNY   48  43  81 CALM      30.16S
ANNAPOLIS      MOSUNNY   54  42  64 CALM      30.14R
FORT MEADE*    PTSUNNY   46  43  87 CALM      30.16S

$$

MDZ012-015-019>023-201500-
MARYLAND EASTERN SHORE

CITY           SKY/WX    TMP DP  RH WIND       PRES   REMARKS
OCEAN CITY     MOSUNNY   57  40  52 CALM      30.16S
SALISBURY      SUNNY     56  40  55 S6        30.16R
BAY BRIDGE AP*   N/A     54  36  50 S10       30.15S
CAMBRIDGE*     MOSUNNY   55  41  58 SE7       30.15S
EASTON*        SUNNY     54  41  62 CALM      30.18S

$$

MDZ017>025-201500-
SOUTHERN MARYLAND

CITY           SKY/WX    TMP DP  RH WIND       PRES   REMARKS
PATUXENT RIVER PTSUNNY   58  42  55 S7        30.14S
ST INIGOES     SUNNY     57  44  62 S9        30.15S
LEONARDTOWN*   NOT AVBL

$$

MDZ003>005-201500-
NORTH CENTRAL MARYLAND

CITY           SKY/WX    TMP DP  RH WIND       PRES   REMARKS
FREDERICK*     SUNNY     48  41  76 CALM      30.14F
HAGERSTOWN APT CLOUDY    46  37  71 SE3       30.09F
WESTMINSTER*   CLOUDY    52  39  62 S6        30.10F

$$

MDZ501>502-201500-
WESTERN MARYLAND

CITY           SKY/WX    TMP DP  RH WIND       PRES   REMARKS
OAKLAND*       CLOUDY    41  34  75 S10       30.04S
CUMBERLAND*    NOT AVBL

$$

VAZ025>031-201500-
SHENANDOAH VALLEY

CITY           SKY/WX    TMP DP  RH WIND       PRES   REMARKS
WINCHESTER*    CLOUDY    50  34  53 SW5       30.08F
FRONT ROYAL*   FAIR      46  37  71 CALM      30.08S
LURAY*         FAIR      48  41  76 CALM      30.08F
NEW MARKET*    FAIR      45  38  77 CALM      30.08F
STAUNTON*      MOSUNNY   46  38  74 CALM      30.11S
WAYNESBORO*    FAIR      51  37  59 N3        30.08S

$$

WVZ021-048>050-054>055-201500-
EASTERN WEST VIRGINIA PANHANDLE

CITY           SKY/WX    TMP DP  RH WIND       PRES   REMARKS
MARTINSBURG    CLOUDY    44  37  76 CALM      30.09F
PETERSBURG*    CLOUDY   N/A N/A N/A CALM      30.09F

$$

VAZ036>039-050-201500-
CENTRAL FOOTHILLS

CITY           SKY/WX    TMP DP  RH WIND       PRES   REMARKS
CHARLOTTESVILL SUNNY     49  40  71 CALM      30.11S
CULPEPER*      MOSUNNY   48  43  81 S7        30.13S
ORANGE*        SUNNY     50  43  76 S5        30.13S
GORDONSVILLE*  FAIR      47  41  78 SW3       30.11S
WARRENTON*     FAIR      52  46  80 S3        30.11F

$$

VAZ055>057-201500-
NORTH AND CENTRAL PIEDMONT

CITY           SKY/WX    TMP DP  RH WIND       PRES   REMARKS
FREDERICKSBRG* SUNNY     53  40  63 S9        30.12F
STAFFORD*      SUNNY     50  40  68 S7        30.16F

$$

NCZ024-NYZ072-PAZ021-071-VAZ022-071-201500-
OTHER REGIONAL OBSERVATIONS

CITY           SKY/WX    TMP DP  RH WIND       PRES   REMARKS
NEW YORK CITY  PTSUNNY   48  31  51 CALM      30.14F
PHILADELPHIA   PTSUNNY   51  36  56 SW5       30.14F
PITTSBURGH     CLOUDY    47  38  71 S7        30.00F
ROANOKE        MOSUNNY   48  40  73 CALM      30.14S
RICHMOND       PTSUNNY   54  44  69 S9        30.16S
RALEIGH        MOSUNNY   57  48  72 SW5       30.17S

$$

ANZ530>537-201500-
MARINE OBSERVATIONS

STATION/POSITION TIME  TEMP    WIND        PRES
                       AIR SEA DIR/SP/G
                 (UTC) (F)     (DEG/KT/KT) (MB)
THOMAS PT LIGHT  1400   56 63  170/ 14/ 15 1021.6R
BALT KEY BRIDGE  1400   51     170/  5/  5 1020.5R
COVE POINT       1400   57     190/ 15/ 17 1020.7R
LEWISETTA        1400   56 62  210/ 10/ 11 1021.0R
SOLOMONS ISLAND  1400      66                N/A
PINEY POINT      1400          220/ 13/ 14   N/A

$$



USA.gov is the U.S. government's official web portal to all federal, state and local government web resources and services.